Overview Statistics Trail Chart Weather Telemetry Raw packets
 

This is the latest recevied weather packets stored in our database for station/object IW1QNQ-13. If no packets are shown the sender has not sent any weather packets the latest 10 day(s).

<< 1 2 3 4 5 6 >>
Time Temp. Humidity Pressure Rain* Wind** Luminosity Snow
1787828690 32.78° C 37% 1022.3 hPa - - - -
1787827489 32.78° C 36% 1022.3 hPa - - - -
1787826288 34.44° C 34% 1022.5 hPa - - - -
1787825088 35° C 34% 1022.3 hPa - - - -
1787823887 34.44° C 34% 1022.1 hPa - - - -
1787822686 37.78° C 29% 1022.4 hPa - - - -
1787821485 37.22° C 29% 1022.2 hPa - - - -
1787820284 36.67° C 33% 1022.1 hPa - - - -
1787819084 36.11° C 34% 1021.9 hPa - - - -
1787817883 37.78° C 35% 1021.9 hPa - - - -
1787816696 33.89° C 38% 1021.8 hPa - - - -
1787815495 28.33° C 48% 1022.1 hPa - - - -
1787814301 31.11° C 42% 1022.3 hPa - - - -
1787813093 31.11° C 39% 1021.7 hPa - - - -
1787811893 27.78° C 44% 1021.5 hPa - - - -
1787810692 28.33° C 42% 1021.4 hPa - - - -
1787809491 27.22° C 44% 1021.3 hPa - - - -
1787808290 26.67° C 45% 1021.2 hPa - - - -
1787807090 25.56° C 46% 1021 hPa - - - -
1787805889 24.44° C 47% 1020.6 hPa - - - -
1787804688 24.44° C 49% 1020.6 hPa - - - -
1787803487 23.89° C 51% 1021 hPa - - - -
1787802286 23.89° C 51% 1021.2 hPa - - - -
1787801085 24.44° C 49% 1021.2 hPa - - - -
1787799884 25° C 47% 1021.1 hPa - - - -

* Rain since midnight (hover to see other rain measurements)
** Current wind speed in m/s (hover to see current wind gust speed)